Theta_e
321 319 317 316 315 314 314 314 313 313 312 312 311 312 312 312 311 310 308 307 308 308 308 310 311 311 314 313 313 313 315 316 316 316 316 316 317 318 326 328 328 328 327
321 319 318 318 317 315 313 313 313 313 312 312 311 310 311 312 311 311 310 309 308 309 311 310 312 312 314 315 314 314 315 315 316 315 316 318 318 322 324 324 324 323 323
323 321 319 318 317 314 313 313 313 313 312 311 312 311 312 312 311 310 310 310 309 310 311 311 312 313 314 314 315 314 314 314 316 316 315 316 318 316 317 318 319 318 320
323 321 320 318 317 314 314 313 312 311 311 310 310 310 311 311 310 310 310 310 310 310 310 312 312 314 313 314 314 313 312 313 314 315 315 315 314 315 316 316 316 317 316
324 322 320 318 316 314 313 312 312 311 310 310 309 310 310 310 309 309 310 310 310 310 311 311 312 311 312 313 312 311 313 314 313 313 314 314 315 316 316 317 316 316 318
323 322 320 318 316 314 313 312 312 311 310 310 310 309 309 308 308 308 308 309 308 308 310 310 310 311 313 312 312 313 312 310 312 313 313 312 312 313 313 313 314 316 317
323 322 320 318 316 315 313 312 312 311 310 309 309 308 307 307 307 307 306 306 306 307 308 310 311 311 312 312 312 311 311 311 312 311 312 311 311 312 312 312 313 314 314
324 322 320 318 316 314 313 312 311 310 309 309 309 307 308 307 306 306 306 307 306 307 309 311 310 311 311 310 310 309 309 309 309 310 309 309 308 309 309 309 310 310 311
325 323 320 318 316 314 313 311 311 309 309 309 308 308 307 306 305 306 307 308 307 307 309 310 310 309 307 306 306 305 305 307 307 307 307 306 306 307 307 307 307 307 308
325 322 319 317 315 313 312 311 310 309 309 308 309 308 308 307 308 308 307 307 307 307 307 308 308 307 308 307 305 304 306 306 306 306 306 306 306 305 304 305 306 306 306
324 322 319 316 314 313 312 311 310 309 309 309 309 308 308 307 307 307 307 306 306 306 306 307 307 307 307 306 306 305 305 305 305 305 305 305 305 305 305 305 305 305 305
324 321 318 315 313 313 312 311 309 309 309 308 309 308 308 307 306 305 305 305 304 303 303 305 306 306 307 307 306 306 305 305 305 305 305 304 304 305 305 304 305 305 304
322 320 316 315 314 313 312 310 309 308 308 308 308 308 307 307 307 306 306 306 305 305 302 303 304 306 307 307 307 306 306 306 305 305 305 304 304 304 304 304 304 304 304
321 319 316 315 314 313 311 310 309 308 308 308 308 308 307 307 307 307 308 307 307 306 304 302 304 305 305 305 305 305 305 305 304 304 304 304 304 303 303 302 303 302 303
320 318 317 315 313 312 311 309 308 308 308 308 309 308 308 307 307 307 308 308 308 307 305 302 303 303 301 299 299 301 304 304 304 304 304 304 302 300 299 300 301 301 301
320 318 316 315 313 312 311 309 308 308 308 308 308 308 308 307 307 306 308 308 308 308 305 302 302 303 301 300 301 301 304 304 304 303 303 302 301 301 300 299 298 300 301
320 317 316 314 313 312 310 309 309 308 308 308 308 307 307 306 305 306 306 307 308 308 306 303 303 304 302 300 300 300 303 303 303 302 302 300 300 300 297 298 300 301 301
319 317 315 314 312 311 309 309 308 308 308 308 307 307 305 303 304 305 304 306 307 307 304 302 303 304 302 300 300 301 303 302 302 301 301 300 299 298 295 296 299 300 301
319 316 315 313 311 310 309 308 308 308 308 308 307 304 303 303 302 302 303 302 304 304 302 302 303 303 304 301 301 300 302 302 301 301 301 299 298 297 296 296 299 300 300
317 315 313 312 311 309 307 308 308 308 308 307 304 304 303 303 303 302 301 301 304 302 302 303 303 302 304 301 301 301 301 301 301 301 300 300 297 297 297 296 298 298 298
314 313 311 311 310 308 306 308 308 308 308 304 305 305 304 305 302 303 301 301 303 304 304 304 304 304 303 302 301 301 301 300 301 301 300 300 298 298 298 298 298 297 296
312 311 311 310 308 306 306 307 308 308 306 304 306 306 307 306 304 304 306 304 302 306 305 305 304 303 304 303 301 301 301 300 300 301 300 299 299 299 299 299 298 298 298
311 310 310 309 306 305 307 308 308 307 305 306 307 307 306 307 307 306 307 306 306 306 305 305 304 304 303 303 303 302 302 301 301 301 300 300 300 300 300 300 299 299 298
311 309 309 308 306 307 307 308 307 306 306 307 307 307 306 306 307 306 306 306 306 305 305 305 305 304 304 304 303 302 302 302 302 301 300 301 301 301 300 300 299 299 298
309 308 308 308 308 307 307 307 306 306 307 307 307 306 306 306 306 306 306 305 305 305 304 304 304 304 304 303 302 301 302 301 301 300 301 302 301 300 300 300 299 298 298
309 308 308 308 308 307 307 306 306 306 306 306 306 305 305 306 306 306 306 306 303 303 303 303 303 303 303 302 302 301 301 302 302 301 302 302 301 300 299 299 299 298 297
Wind_Speed
10 10 10 11 11 11 10 11 12 14 15 16 16 12 13 12 12 13 18 17 17 18 18 15 16 17 14 17 17 16 16 14 14 17 17 18 19 14 10 10 6 2 3
11 10 9 9 8 9 10 12 13 13 17 18 19 21 16 10 11 12 14 16 16 15 13 15 13 15 12 13 14 14 14 11 13 15 15 11 9 4 5 8 8 10 6
13 12 10 8 7 7 9 9 11 14 18 21 17 17 12 11 12 12 12 13 14 13 12 12 12 12 11 11 12 13 13 12 11 12 10 9 8 16 4 10 11 15 13
12 13 11 9 7 6 5 7 11 16 19 22 19 18 13 12 12 13 13 12 12 11 11 11 10 10 9 10 10 11 15 14 14 10 10 7 7 6 10 9 10 10 10
16 14 11 9 7 5 4 7 12 16 19 19 18 14 13 12 12 13 13 12 11 10 10 10 10 11 10 10 10 11 11 11 12 15 13 9 9 5 11 13 14 11 11
17 15 12 10 6 4 3 6 12 15 15 15 15 14 13 12 12 12 11 10 10 9 10 10 9 9 10 10 10 10 13 13 11 12 11 11 12 12 12 12 13 14 11
19 17 14 9 7 3 2 6 12 12 14 15 14 12 12 12 11 13 11 10 8 7 8 9 10 10 11 10 10 11 11 12 12 12 11 11 11 12 13 14 14 16 15
19 17 14 11 7 4 2 6 8 12 14 13 13 11 10 9 11 13 13 13 12 12 11 10 10 11 12 11 12 11 11 13 12 14 14 11 11 11 11 13 15 17 14
21 19 16 12 8 4 2 4 8 11 12 10 10 9 9 10 11 12 13 13 14 13 13 13 12 12 13 14 13 12 12 11 11 12 13 12 12 11 12 11 12 13 17
20 18 16 12 8 5 1 4 7 8 8 8 8 7 8 8 9 11 13 13 14 15 14 13 12 12 13 14 13 13 14 13 13 13 15 15 15 13 13 12 12 12 14
20 19 16 12 8 5 2 3 6 6 6 6 7 8 8 9 9 9 10 11 12 12 12 11 10 10 11 12 12 12 13 13 14 14 14 15 15 15 15 14 14 13 14
20 19 16 13 10 6 3 2 4 4 3 4 5 6 6 7 7 9 9 10 11 12 11 9 9 10 9 9 11 11 12 13 14 15 15 15 15 15 15 15 15 12 14
20 19 16 14 10 7 4 1 2 1 2 3 4 5 5 6 7 7 8 9 10 12 13 10 10 10 11 9 11 11 12 13 14 14 16 16 16 17 17 17 17 17 16
21 19 16 14 11 8 5 2 1 3 2 3 3 3 4 4 5 5 6 7 8 10 12 11 10 11 10 10 10 11 12 13 14 15 15 16 16 16 17 17 18 20 21
21 19 17 14 12 9 5 3 3 5 4 4 2 1 3 4 5 6 5 5 6 8 10 12 10 10 11 13 14 15 13 14 15 15 16 16 19 19 19 19 21 21 22
20 19 17 15 13 10 6 5 5 6 5 4 2 0 2 3 5 6 7 4 5 6 8 10 11 11 10 15 16 16 14 14 15 16 17 17 17 20 23 23 22 20 21
20 19 18 16 13 9 8 6 6 7 6 5 2 1 2 3 4 5 7 6 5 5 7 8 8 10 10 13 15 16 14 15 16 16 17 19 19 21 26 25 22 19 19
18 18 17 15 12 9 7 7 8 8 8 5 2 3 4 4 2 4 5 5 5 5 6 6 7 8 9 12 15 15 14 16 15 16 17 19 21 23 28 27 22 21 18
17 17 16 14 11 9 8 9 10 9 8 5 1 2 2 3 4 5 5 6 5 5 5 5 6 7 8 13 16 18 14 16 15 16 17 18 22 26 28 26 24 22 21
17 17 15 13 10 9 9 11 11 11 9 5 3 3 5 5 6 8 9 11 7 7 5 4 5 7 8 12 15 17 14 16 17 16 16 19 25 27 26 27 22 27 25
17 16 14 11 10 10 12 13 13 12 9 6 5 4 3 2 3 4 6 7 7 5 6 6 6 7 8 11 15 16 14 15 16 17 18 19 25 27 27 29 26 29 26
16 14 12 10 11 12 14 13 14 12 9 8 5 4 2 2 2 3 4 5 6 6 8 8 10 10 11 13 13 15 16 17 17 16 19 20 26 27 27 26 32 31 25
14 12 11 12 12 14 14 14 14 11 9 8 5 4 4 4 4 4 6 6 7 8 9 10 11 12 12 13 14 16 18 18 20 17 24 23 25 24 25 28 28 27 23
12 12 13 13 13 14 14 14 13 11 9 7 5 4 4 4 5 5 7 8 8 9 11 12 13 13 14 13 13 16 17 18 20 20 22 20 21 24 26 29 30 27 23
12 13 13 14 14 15 16 14 13 11 8 6 5 4 5 5 5 6 8 9 9 8 10 11 12 14 15 15 17 15 16 16 19 22 19 20 23 25 27 29 30 27 29
13 13 15 15 16 17 15 13 12 10 8 6 4 5 4 4 5 7 9 11 9 10 13 15 16 17 18 19 21 17 22 19 24 20 17 18 20 25 26 29 31 24 35
Wind_Direction
135 120 110 102 99 93 88 74 57 43 29 17 7 355 340 331 331 328 320 320 318 317 321 324 326 326 338 332 334 335 332 332 324 322 306 290 282 277 273 275 272 301 293
143 135 130 120 109 100 82 61 45 33 21 10 2 352 339 330 335 334 337 332 335 335 340 337 344 339 351 348 354 354 354 344 347 339 328 324 311 212 344 291 285 294 289
166 157 152 137 116 94 68 48 29 19 13 10 357 354 348 342 330 340 337 341 346 349 350 350 352 354 7 355 10 11 14 10 7 8 7 345 358 329 319 309 306 321 307
177 166 158 147 133 100 53 17 13 13 3 3 2 358 358 348 341 342 333 348 342 352 356 360 2 10 23 17 14 14 21 21 17 31 10 358 328 332 324 329 323 325 311
179 173 162 160 142 104 33 9 11 358 360 4 1 4 356 350 343 341 342 344 343 352 4 7 15 20 24 16 14 23 16 9 10 20 18 12 355 359 326 326 333 327 326
180 174 170 160 144 116 49 19 0 356 4 4 1 2 358 359 356 352 353 345 348 359 360 10 20 23 20 13 16 15 8 7 11 6 2 10 6 354 353 333 327 319 328
183 179 176 170 164 160 47 12 349 2 2 3 3 2 4 1 7 5 355 357 355 8 359 16 18 18 18 15 15 10 9 8 10 8 2 357 355 344 339 337 333 324 316
188 185 182 178 178 163 51 355 6 4 3 6 6 8 20 19 18 32 34 29 27 26 33 26 28 25 26 29 29 17 23 16 19 16 14 12 360 356 348 339 334 331 328
190 185 183 179 177 157 323 17 13 10 9 13 24 27 36 33 38 33 30 29 28 33 37 43 44 47 38 28 30 17 22 23 19 12 7 9 353 351 350 349 344 339 334
188 184 182 180 172 156 145 25 16 16 20 30 28 30 29 36 38 35 38 42 44 46 48 52 48 40 30 26 36 36 31 34 33 26 21 20 10 359 349 342 338 333 328
187 185 182 180 174 166 143 32 20 25 35 32 31 37 46 45 31 36 37 38 36 36 36 36 31 27 26 27 32 33 31 28 23 20 15 11 8 7 1 355 345 338 333
184 183 182 177 176 173 174 22 23 44 50 41 50 55 48 39 35 40 39 41 39 31 24 24 24 26 22 20 20 17 15 10 7 4 4 1 0 359 354 353 349 338 333
179 179 179 180 180 179 172 116 51 111 92 75 65 59 51 44 39 36 35 36 35 28 23 27 26 24 22 21 11 6 1 359 356 355 355 354 352 349 344 340 334 327 323
179 179 180 182 182 180 176 170 151 156 132 121 99 72 54 27 17 16 12 16 21 20 21 25 27 30 25 23 11 358 355 355 355 352 350 349 349 346 343 340 331 326 320
181 183 182 182 181 179 183 177 170 173 152 150 128 90 26 16 12 7 1 3 12 10 17 21 22 24 19 16 21 15 2 356 352 351 349 345 344 341 342 340 329 327 318
184 184 184 183 181 183 185 182 178 180 165 165 173 29 12 6 356 5 11 6 3 3 17 22 32 34 32 34 24 12 7 358 355 353 348 346 339 341 336 332 330 329 319
183 183 184 183 182 182 184 181 179 179 168 169 184 282 304 319 330 350 0 5 10 13 14 23 31 28 25 28 19 12 10 2 356 354 352 350 343 340 344 341 340 331 325
181 181 180 178 177 178 179 177 176 173 168 174 192 312 319 314 338 345 6 24 22 20 17 26 27 27 19 18 14 11 3 1 356 354 351 352 350 342 346 344 337 333 330
177 176 176 173 172 175 182 173 174 173 169 178 171 348 42 74 72 47 45 45 36 19 25 35 29 20 12 15 12 8 1 355 353 350 347 347 350 349 347 345 338 333 327
166 167 168 167 172 177 177 169 173 172 168 172 146 111 105 99 82 66 57 53 45 24 35 18 3 2 356 355 358 1 360 351 350 349 351 343 344 347 347 347 345 332 326
160 162 165 169 177 178 173 167 171 174 174 167 152 146 137 110 69 48 40 34 27 17 8 356 338 333 335 345 351 350 351 343 347 344 343 342 336 346 354 357 342 340 340
162 164 165 170 175 175 163 168 171 172 171 171 170 186 214 240 283 332 319 339 346 335 335 335 342 339 324 326 337 344 341 340 337 332 334 331 338 349 350 346 341 347 346
165 168 169 168 173 166 165 168 172 171 172 177 193 219 241 250 276 307 310 320 310 319 322 324 328 332 336 332 323 331 333 335 336 326 328 332 338 337 344 343 346 347 341
171 170 170 172 171 167 165 166 172 171 173 183 205 224 239 254 279 309 315 316 313 311 315 316 316 318 324 327 331 331 327 326 330 323 327 328 334 336 339 345 346 346 345
172 171 173 173 172 168 167 169 172 174 179 191 205 229 254 267 279 305 309 313 302 298 312 322 322 319 318 317 309 313 332 327 324 321 326 329 336 338 338 342 345 346 341
171 171 171 172 170 165 169 172 177 178 188 197 222 244 250 268 294 312 323 325 315 295 307 311 310 309 303 304 301 312 311 314 329 321 321 327 338 342 340 342 343 342 344